カタログに戻る

USA 426

運用中軍事VLEO
NORAD 61649·PAYLOAD·🇺🇸 United States

打ち上げ Oct 24, 2024 から Vandenberg Space Force Base

Loading…

次のパス (今後24時間)

TLE

古いSource: Mike McCants

元期: Aug 11, 2026, 20:38 UTC

1 61649U 24192F   26223.86028207 0.00000000  00000-0  00000-0 0    05
2 61649  70.0214 127.1583 0003000 109.4696 250.5304 14.96713330    03

AllMySatでUSA 426をリアルタイム追跡

Download on the App Store